カタログに戻る

COSMOS 2251 DEB

運用中LEO
NORAD 34878·DEBRIS·🇷🇺 Russia

打ち上げ Jun 16, 1993 から Plesetsk Cosmodrome

Loading…

次のパス (今後24時間)

TLE

古いSource: Space-Track

元期: Sep 7, 2026, 14:33 UTC

1 34878U 93036ACR 26250.60626251  .00000597  00000-0  60162-3 0  9993
2 34878  73.9677 340.6298 0435465 272.6084 149.4472 13.44536217848860

AllMySatでCOSMOS 2251 DEBをリアルタイム追跡

Download on the App Store